Regional Weather Roundup
Issued by NWS Columbia, SC

Home | Current Version | Previous Version | Text Only | Print | Product List | Glossary On
Versions: 1 2 3 4 5 6 7 8 9 10 11 12 13 14 15 16 17 18 19 20 21 22 23 24 25 26 27 28
000
ASUS42 KCAE 301110
RWRCAE
REGIONAL WEATHER ROUNDUP
NATIONAL WEATHER SERVICE COLUMBIA SC
700 AM EDT TUE MAY 30 2017

NOTE: "FAIR" INDICATES FEW OR NO CLOUDS BELOW 12,000 FEET WITH NO
SIGNIFICANT WEATHER AND/OR OBSTRUCTIONS TO VISIBILITY.

NOT ALL STATIONS ARE QUALITY CONTROLLED BY THE NATIONAL
WEATHER SERVICE. USE DATA WITH CAUTION...ESPECIALLY
DEWPOINT OBSERVATIONS.

SCZ001>056-GAZ040-063>065-077-301200-
...UPSTATE SOUTH CAROLINA...

CITY           SKY/WX    TMP DP  RH WIND       PRES   REMARKS
ANDERSON       PTCLDY    66  64  93 SW3       30.09R
SPARTANBURG    CLOUDY    66  64  94 CALM      30.07R
CLEMSON        CLOUDY    66  62  87 CALM      30.09R
GREENVILLE     CLOUDY    67  63  87 W3        30.09R
GREENWOOD      CLOUDY    68  66  93 W3        30.09R
GREER          MOCLDY    65  64  97 SW5       30.07R
ROCK HILL      CLOUDY    68  67  96 SW7       30.07R
CHESTER        CLOUDY    68  68 100 S3        30.08R FOG
LAURENS        CLOUDY    68  68 100 SW3       30.07R FOG


...CENTRAL SOUTH CAROLINA...

CITY           SKY/WX    TMP DP  RH WIND       PRES   REMARKS
COLUMBIA APT   CLOUDY    69  66  90 SW3       30.07R
COLUMBIA OWENS CLOUDY    70  68  93 CALM      30.08R
MCENTIRE ANGB  MOCLDY    67  67  99 CALM      30.07R
ORANGEBURG     PTCLDY    70  68  93 CALM      30.07R
SUMTER SHAW    CLOUDY    69  68  95 SW3       30.04R
NEWBERRY       CLOUDY    68  68 100 W5        30.11R FOG
AIKEN          FAIR      64  64 100 SW3       30.12R
BARNWELL       FAIR      70  70 100 CALM      30.08R
MANNING        FAIR      68  68 100 CALM      30.06R
CAMDEN         FAIR      68  68 100 CALM      30.07R
LANCASTER      CLOUDY    68  68 100 SW5       30.08R FOG
WINNSBORO      CLOUDY    68  68 100 W3        30.07R FOG


...EASTERN AND COASTAL SOUTH CAROLINA...

CITY           SKY/WX    TMP DP  RH WIND       PRES   REMARKS
MYRTLE BEACH   PTCLDY    72  70  94 CALM      30.06R
N MYRTLE BCH   CLEAR     72  71  97 CALM      30.05R
CONWAY         FAIR      68  68 100 CALM      30.06R FOG
MARION         FOG       68  68 100 CALM      30.06R VSB 1/4
HARTSVILLE     PTSUNNY   68  68 100 CALM      30.06R
FLORENCE       CLOUDY    70  70 100 CALM      30.06R FOG
DARLINGTON     PTCLDY    69  68  96 CALM      30.07R
CHARLESTON APT MOCLDY    73  70  90 N3        30.06R
MOUNT PLEASANT FAIR      72  72 100 CALM      30.06R FOG
WALTERBORO     MOSUNNY   68  66  94 CALM      30.08R
BEAUFORT       CLEAR     74  73  97 NW5       30.07R


...EASTERN GEORGIA...

CITY           SKY/WX    TMP DP  RH WIND       PRES   REMARKS
AUGUSTA BUSH F PTCLDY    70  67  90 S3        30.08R
AUGUSTA DANIEL CLOUDY    69  65  86 VRB3      30.09R
THOMSON        FOG       66  66  97 W3        30.14R VSB 1/4
WASHINGTON     FOG       68  68 100 CALM      30.09R VSB 1
CLAXTON        FAIR     N/A N/A N/A CALM      30.09R
SYLVANIA       MOSUNNY   70  70  99 CALM      30.09R
STATESBORO     CLOUDY    70  70 100 CALM      30.08S
SAVANNAH       MOCLDY    73  68  84 NW6       30.08R


...SOUTHERN NORTH CAROLINA...

CITY           SKY/WX    TMP DP  RH WIND       PRES   REMARKS
CHARLOTTE      CLOUDY    68  65  90 CALM      30.06R
MONROE         CLOUDY    68  65  90 SW6       30.06R
WADESBORO      CLOUDY    66  64  94 CALM      30.06R
ROCKINGHAM     CLOUDY    66  66 100 CALM      30.06R
RUTHERFORDTON  CLOUDY    67  67 100 CALM      30.09R FOG
ASHEVILLE      CLOUDY    62  59  90 N10       30.13R

$$




USA.gov is the U.S. government's official web portal to all federal, state and local government web resources and services.